Voltar ao catálogo

STARLINK-37722

AtivoComunicaçõesSSO
NORAD 69125·PAYLOAD·🇺🇸 United States

Lançado May 20, 2026 de Vandenberg Space Force Base

Loading…

Próximas Passagens (próximas 24 horas)

TLE

AtualizadoSource: CelesTrak SupGP

Época: Sep 15, 2026, 03:34 UTC

1 69125C 26110B   26258.14909722 -.00044335  00000+0 -13763-2 0  2580
2 69125  97.2855  93.2372 0001816  97.5945 243.7190 15.33461203    17

Acompanhe STARLINK-37722 em tempo real com AllMySat

Download on the App Store